Location: Trondheim
(63.4170°N, 10.4170°E)
Time: 00:24:58
(UTC+02:00)

Iridium 82 - Visible Passes

Search period start: 30 March 2015 00:00
Search period end: 09 April 2015 00:00
Orbit: 776 x 779 km, 86.4° (Epoch: 29 March)

Date Brightness Start Highest point End Pass type
(mag) Time Alt. Az. Time Alt. Az. Time Alt. Az.
30 Mar 6.3 01:18:19 10° NNW 01:23:14 42° W 01:24:32 35° WSW visible
30 Mar 7.8 03:00:37 10° NW 03:02:46 12° WNW 03:04:46 10° W visible
30 Mar 7.6 21:23:57 10° NNE 21:26:19 13° NE 21:28:48 10° ENE visible
30 Mar 6.4 23:03:52 10° N 23:08:44 37° ENE 23:10:44 28° ESE visible
31 Mar 5.8 00:44:38 10° N 00:49:48 61° W 00:51:13 44° SW visible
31 Mar 7.5 02:26:16 10° NNW 02:29:40 17° WNW 02:31:41 14° W visible
31 Mar 6.8 22:30:25 10° N 22:34:51 27° ENE 22:37:26 19° ESE visible
01 Apr 5.5 00:11:02 10° N 00:16:18 87° W 00:17:54 46° S visible
01 Apr 7.1 01:52:18 10° NNW 01:56:29 24° WNW 01:58:23 20° WSW visible
01 Apr 7.2 21:57:02 10° N 22:00:52 20° NE 22:04:07 12° E visible
01 Apr 5.6 23:37:27 10° N 23:42:41 66° ENE 23:44:36 38° SSE visible
02 Apr 6.7 01:18:30 10° NNW 01:23:12 34° W 01:25:05 26° WSW visible
02 Apr 7.5 21:23:46 10° N 21:26:47 15° NE 21:29:54 10° E visible
02 Apr 6.0 23:03:55 10° N 23:08:58 46° ENE 23:11:18 28° SE visible
03 Apr 6.1 00:44:48 10° NNW 00:49:50 49° W 00:51:47 33° SW visible
03 Apr 7.8 02:26:45 10° NNW 02:29:30 14° WNW 02:32:06 10° W visible
03 Apr 6.5 22:30:26 10° N 22:35:09 33° ENE 22:38:00 20° ESE visible
04 Apr 5.6 00:11:09 10° N 00:16:23 71° W 00:18:28 36° SSW visible
04 Apr 7.4 01:52:37 10° NNW 01:56:21 20° WNW 01:58:57 14° WSW visible
04 Apr 6.9 21:56:59 10° N 22:01:13 24° ENE 22:04:43 13° ESE visible
04 Apr 5.5 23:37:32 10° N 23:42:49 82° E 23:45:11 34° SSE visible
05 Apr 7.0 01:18:44 10° NNW 01:23:08 28° WNW 01:25:40 19° WSW visible
05 Apr 7.3 21:23:38 10° N 21:27:11 18° NE 21:30:49 10° E visible
05 Apr 5.8 23:03:59 10° N 23:09:09 57° ENE 23:11:54 27° SE visible
06 Apr 6.5 00:44:57 10° NNW 00:49:48 39° W 00:52:22 24° SW visible
06 Apr 7.9 02:27:31 10° NW 02:29:17 12° WNW 02:30:53 10° WNW visible
06 Apr 6.2 22:30:27 10° N 22:35:23 40° ENE 22:38:37 20° SE visible
07 Apr 6.0 00:11:16 10° NNW 00:16:24 56° W 00:19:06 27° SSW visible
07 Apr 7.7 01:52:59 10° NNW 01:56:11 16° WNW 01:59:17 10° WSW visible
07 Apr 6.7 21:56:59 10° N 22:01:31 29° ENE 22:05:21 13° ESE visible
07 Apr 5.5 23:37:38 10° N 23:42:54 81° W 23:45:50 27° S visible
08 Apr 7.4 01:18:58 10° NNW 01:23:01 23° WNW 01:26:19 13° WSW visible
08 Apr 7.1 21:23:34 10° N 21:27:33 22° NE 21:31:36 10° ESE visible
08 Apr 5.6 23:04:02 10° N 23:09:17 71° E 23:12:34 23° SSE visible
